Regional Weather Roundup
Issued by NWS Jackson, KY

Home | Current Version | Previous Version | Text Only | Print | Product List | Glossary On
Versions: 1 2 3 4 5 6 7 8 9 10 11 12 13 14 15 16 17 18 19 20 21 22 23 24 25 26 27
000
ASUS43 KJKL 290410
RWRJKL

EAST KENTUCKY HOURLY WEATHER ROUNDUP
NATIONAL WEATHER SERVICE JACKSON KY
1200 AM EDT SAT APR 29 2017

NOTE: "FAIR" INDICATES FEW OR NO CLOUDS BELOW 12,000 FEET WITH
NO SIGNIFICANT WEATHER AND/OR OBSTRUCTIONS TO VISIBILITY.

* THESE REPORTS ARE NOT UNDER NWS QUALITY CONTROL AND MAY NOT
  REPORT WEATHER SUCH AS PRECIPITATION AND FOG.

KYZ079-080-083-085-087-088-110-112-115-119-120-290500
...EASTERN KENTUCKY...

CITY           SKY/WX    TMP DP  RH WIND       PRES   REMARKS
JACKSON        PTCLDY    74  62  66 VRB3      29.99R
LONDON         CLEAR     76  61  59 S8        29.99R
SOMERSET*      CLOUDY    73  63  68 S7        29.98F
MONTICELLO*    CLOUDY    75  65  70 VRB7      29.97S
WILLIAMSBURG*  CLEAR     75  63  64 S8        30.00R
MIDDLESBORO*   PTCLDY    66  65  96 CALM      30.03F
HARLAN APT*    CLOUDY    75  59  57 CALM      30.05S
PIKE CO APT*   CLOUDY    75  61  61 S5        30.01S
BIG SANDY APT* MOCLDY    76  62  60 S8        29.99S
MOREHEAD APT*  CLOUDY    75  61  60 S13       29.97R
$$

KYZ035-036-041-042-044-050-067-078-099-290500
...CENTRAL KENTUCKY...

CITY           SKY/WX    TMP DP  RH WIND       PRES   REMARKS
MT STERLING*   CLOUDY    73  63  68 SW9       29.96S
FLEMING/MASON* CLOUDY    73  62  67 CALM      29.94R
DANVILLE*      MOCLDY    73  63  68 S10       29.94F
LEXINGTON      CLOUDY    73  63  70 S8        29.91F
FRANKFORT      CLOUDY    73  62  68 SE6       29.87F
LOUISVILLE     TSTM      76  67  73 NW17      29.86R
LEBANON*         N/A     75  64  69 S12       29.91F
GLASGOW*       PTCLDY    76  64  67 S13G20    29.89F
BOWLING GREEN  CLOUDY    78  68  71 S15G22    29.86F
$$

KYZ091>093-OHZ055-061-077-WVZ005-015-034-035-042-290500
...SOUTHERN OHIO/WEST VIRGINIA...

CITY           SKY/WX    TMP DP  RH WIND       PRES   REMARKS
COVINGTON      LGT RAIN  63  62  97 E16       29.86F
COLUMBUS       CLOUDY    57  55  93 E9        29.97F
DAYTON         CLOUDY    57  55  93 SE16      29.96R
WILMINGTON     CLOUDY    58  57  97 E12       29.97R
HUNTINGTON     CLEAR     75  58  55 SW9       29.93S
CHARLESTON     MOCLDY    71  54  54 S6        29.94S
PINEVILLE*     CLEAR     65  60  82 MISG      30.09S
BECKLEY        CLOUDY    70  57  63 S12       30.06F
BLUEFIELD      CLEAR     68  57  68 S5        30.13F
LOGAN CO APT*  CLOUDY    75  52  43 S5        30.01R
$$

VAZ002-007-008-TNZ017-027-036-066-071-290500
...SOUTHWEST VIRGINIA/EAST TENNESSEE...

CITY           SKY/WX    TMP DP  RH WIND       PRES   REMARKS
WISE*          CLEAR     70  59  68 S7        30.12S
JONESVILLE*    CLOUDY    66  64  94 CALM      30.07S
ABINGDON*      CLEAR     70  62  76 W3        30.10F
BRISTOL        CLEAR     65  61  87 CALM      30.07F
MORRISTOWN*    PTCLDY    70  66  88 CALM      30.03F
SEVIERVILLE*   CLEAR     66  63  88 CALM      30.03S
KNOXVILLE      CLEAR     73  63  70 S8        30.02S
LAFOLLETTE*    MOCLDY    77  64  65 S9G17     30.04F
OAK RIDGE      MOCLDY    77  63  61 VRB5      30.04S
CROSSVILLE     CLEAR     73  63  70 S8G21     30.05F
NASHVILLE      PTCLDY    78  67  68 S14       29.92F
$$

...KEY TO REMARKS...
VSB - VISIBILITY IN MILES
WCI - WIND CHILL INDEX
HX  - HEAT INDEX

$$




USA.gov is the U.S. government's official web portal to all federal, state and local government web resources and services.